Location: Shannon
(40.5500°S, 175.4167°E)
Time: 11:16:31
(UTC+00:00)

Cosmos 923 Rocket - Pass Details

Date: 17 November 2025
Orbit: 754 x 780 km, 74.0° (Epoch: 10 December)

Event Time Altitude Azimuth Distance (km) Brightness Sun altitude
Exits shadow 13:47:43 70° 37° (NE) 814 3.9 -25.6°
Maximum altitude 13:48:06 74° 74° (ENE) 799 4.0 -25.5°
Drops below altitude 10° 13:53:21 10° 157° (SSE) 2,319 7.5 -25.1°
Sets 13:55:45 0° 158° (SSE) 3,254 8.6 -24.8°
